{"data":{"norad_id":64062,"intl_designator":"2025-106A","name":"CHINASAT 3B","alt_names":[],"object_type":"PAYLOAD","status":"ACTIVE","operator":null,"country":"PRC","launch_date":"2025-05-20","launch_site_code":"WSC","launch_vehicle":null,"mission":null,"orbit_class":"UNKNOWN","rcs_meters":null,"size_class":null,"mass_kg":null,"dimensions":null,"purposes":["comms"],"wikipedia_slug":null,"has_3d_model":false,"image_url":null,"decayed_at":null,"tle_current":{"epoch":"2026-09-19T09:12:51.532992Z","epoch_age_seconds":118479,"freshness":"FRESH","line1":"1 64062U 25106A   26262.38392978 -.00000049  00000+0  00000+0 0  9991","line2":"2 64062   0.0157 346.5352 0002296 203.5397 113.7515  1.00271851  5002","mean_motion":1.00271851,"eccentricity":0.0002296,"inclination_deg":0.0157,"raan_deg":346.5352,"arg_perigee_deg":203.5397,"mean_anomaly_deg":113.7515,"bstar":0,"rev_number":500,"period_min":1436.0959587751,"perigee_km":35776.895440795,"apogee_km":35796.257477215,"semimajor_km":42164.713459005,"source":"CELESTRAK","updated_at":"2026-09-20T09:00:35.344409Z"}}}